• In Italy
  • List of Countries
  • For 7 days
  • Water Temperature
  • Satellite Maps
  • Weather Map
  • Weather Widgets
  • user-avatar
    Login

    Hourly Weather Eisenstadt

    Today, 17 January, Wednesday

    Time Temperature Precipitation Wind Pressure Humidity
    00:00 +1°C° 0 mm 2 mps 709 mmHg 83%
    01:00 +1°C° 0 mm 2 mps 709 mmHg 83%
    02:00 +1°C° 0.2 mm 2 mps 708 mmHg 84%
    03:00 +1°C° 0.2 mm 2 mps 708 mmHg 86%
    04:00 +1°C° 0.2 mm 2 mps 707 mmHg 87%
    05:00 +2°C° 0.2 mm 1 mps 707 mmHg 88%
    06:00 +1°C° 0.2 mm 1 mps 707 mmHg 88%
    07:00 +1°C° 0 mm 1 mps 707 mmHg 87%
    08:00 +2°C° 0.1 mm 1 mps 707 mmHg 85%
    09:00 +1°C° 0.1 mm 2 mps 707 mmHg 84%
    10:00 +2°C° 0.1 mm 2 mps 707 mmHg 82%
    11:00 +1°C° 0.5 mm 3 mps 708 mmHg 80%
    12:00 +2°C° 0.5 mm 3 mps 708 mmHg 77%
    13:00 +1°C° 0.5 mm 4 mps 708 mmHg 75%
    14:00 +1°C° 0.2 mm 4 mps 709 mmHg 73%
    15:00 0°C° 0.2 mm 5 mps 709 mmHg 70%
    16:00 -1°C° 0.2 mm 5 mps 709 mmHg 68%
    17:00 -1°C° 0 mm 5 mps 710 mmHg 69%
    18:00 -2°C° 0 mm 5 mps 711 mmHg 70%
    19:00 -4°C° 0 mm 5 mps 712 mmHg 70%
    20:00 -4°C° 0 mm 5 mps 713 mmHg 71%
    21:00 -4°C° 0 mm 5 mps 713 mmHg 73%
    22:00 -4°C° 0 mm 5 mps 714 mmHg 74%
    23:00 -4°C° 0.1 mm 5 mps 714 mmHg 74%

    Tomorrow, 18 January, Thursday

    Time Temperature Precipitation Wind Pressure Humidity
    00:00 -4°C° 0.1 mm 5 mps 715 mmHg 74%
    01:00 -2°C° 0.1 mm 5 mps 715 mmHg 74%
    02:00 -4°C° 0 mm 5 mps 716 mmHg 74%
    03:00 -3°C° 0 mm 4 mps 716 mmHg 75%
    04:00 -3°C° 0 mm 4 mps 717 mmHg 76%
    05:00 -3°C° 0 mm 4 mps 717 mmHg 77%
    06:00 -3°C° 0 mm 4 mps 717 mmHg 78%
    07:00 -2°C° 0 mm 3 mps 718 mmHg 79%
    08:00 -1°C° 0 mm 3 mps 718 mmHg 75%
    09:00 0°C° 0 mm 3 mps 718 mmHg 72%
    10:00 +1°C° 0 mm 3 mps 718 mmHg 68%
    11:00 +1°C° 0.1 mm 3 mps 718 mmHg 67%
    12:00 +2°C° 0.1 mm 3 mps 717 mmHg 65%
    13:00 +1°C° 0.1 mm 4 mps 716 mmHg 64%
    14:00 +1°C° 0.1 mm 4 mps 716 mmHg 66%
    15:00 +1°C° 0.1 mm 4 mps 715 mmHg 67%
    16:00 0°C° 0.1 mm 4 mps 714 mmHg 68%
    17:00 0°C° 0 mm 4 mps 714 mmHg 70%
    18:00 -1°C° 0 mm 4 mps 713 mmHg 72%
    19:00 -1°C° 0 mm 4 mps 713 mmHg 73%
    20:00 -1°C° 0 mm 4 mps 712 mmHg 74%
    21:00 0°C° 0 mm 3 mps 712 mmHg 75%
    22:00 0°C° 0 mm 3 mps 712 mmHg 75%
    23:00 0°C° 0.2 mm 3 mps 712 mmHg 77%

    Day after tomorrow, 19 January, Friday

    Time Temperature Precipitation Wind Pressure Humidity
    00:00 +1°C° 0.2 mm 2 mps 713 mmHg 79%
    01:00 +2°C° 0.2 mm 2 mps 713 mmHg 81%
    02:00 +2°C° 0.3 mm 2 mps 713 mmHg 82%
    03:00 +2°C° 0.3 mm 2 mps 713 mmHg 83%
    04:00 +2°C° 0.3 mm 2 mps 713 mmHg 83%
    05:00 +2°C° 0.1 mm 2 mps 714 mmHg 84%
    06:00 +2°C° 0.1 mm 2 mps 714 mmHg 84%
    07:00 +1°C° 0.1 mm 3 mps 715 mmHg 84%
    08:00 +2°C° 0 mm 2 mps 715 mmHg 82%
    09:00 +3°C° 0 mm 2 mps 715 mmHg 80%
    10:00 +3°C° 0 mm 2 mps 716 mmHg 79%
    11:00 +3°C° 0.2 mm 2 mps 716 mmHg 78%
    12:00 +2°C° 0.2 mm 3 mps 716 mmHg 77%
    13:00 +3°C° 0.2 mm 3 mps 716 mmHg 76%
    14:00 +2°C° 0.2 mm 3 mps 716 mmHg 77%
    15:00 +2°C° 0.2 mm 3 mps 716 mmHg 78%
    16:00 +2°C° 0.2 mm 2 mps 717 mmHg 79%
    17:00 +2°C° 0 mm 2 mps 717 mmHg 80%
    18:00 +1°C° 0 mm 2 mps 718 mmHg 81%
    19:00 +1°C° 0 mm 2 mps 718 mmHg 82%
    20:00 +1°C° 0.1 mm 2 mps 718 mmHg 83%
    21:00 +1°C° 0.1 mm 1 mps 718 mmHg 83%
    22:00 +1°C° 0.1 mm 1 mps 719 mmHg 84%
    23:00 +1°C° 0.1 mm 1 mps 718 mmHg 85%

    20 January, Saturday

    Time Temperature Precipitation Wind Pressure Humidity
    00:00 +1°C° 0.1 mm 1 mps 718 mmHg 86%
    01:00 +1°C° 0.1 mm 1 mps 718 mmHg 87%
    02:00 +1°C° 0.1 mm 1 mps 718 mmHg 88%
    03:00 0°C° 0.1 mm 1 mps 717 mmHg 89%
    04:00 0°C° 0.1 mm 1 mps 717 mmHg 91%
    05:00 0°C° 0.1 mm 1 mps 717 mmHg 91%
    06:00 0°C° 0.1 mm 1 mps 717 mmHg 91%
    07:00 -2°C° 0.1 mm 2 mps 717 mmHg 91%
    08:00 0°C° 0.1 mm 1 mps 717 mmHg 87%
    09:00 +1°C° 0.1 mm 1 mps 717 mmHg 84%
    10:00 +2°C° 0.1 mm 1 mps 717 mmHg 81%
    11:00 +1°C° 0 mm 2 mps 717 mmHg 77%
    12:00 +2°C° 0 mm 2 mps 717 mmHg 72%
    13:00 +3°C° 0 mm 2 mps 716 mmHg 68%
    14:00 +2°C° 0.1 mm 2 mps 716 mmHg 71%
    15:00 +1°C° 0.1 mm 2 mps 716 mmHg 74%
    16:00 +2°C° 0.1 mm 1 mps 716 mmHg 76%
    17:00 -1°C° 0.1 mm 2 mps 716 mmHg 78%
    18:00 -2°C° 0.1 mm 2 mps 717 mmHg 80%
    19:00 -3°C° 0.1 mm 2 mps 717 mmHg 82%
    20:00 -3°C° 0 mm 2 mps 717 mmHg 82%
    21:00 -1°C° 0 mm 1 mps 717 mmHg 82%
    22:00 -1°C° 0 mm 1 mps 718 mmHg 82%
    23:00 -3°C° 0.1 mm 2 mps 718 mmHg 82%

    21 January, Sunday

    Time Temperature Precipitation Wind Pressure Humidity
    00:00 -3°C° 0.1 mm 2 mps 718 mmHg 82%
    01:00 -3°C° 0.1 mm 2 mps 718 mmHg 82%
    02:00 -3°C° 0.1 mm 2 mps 719 mmHg 82%
    03:00 -4°C° 0.1 mm 2 mps 719 mmHg 81%
    04:00 -4°C° 0.1 mm 2 mps 719 mmHg 81%
    05:00 -5°C° 0 mm 3 mps 720 mmHg 80%
    06:00 -5°C° 0 mm 3 mps 721 mmHg 80%
    07:00 -6°C° 0 mm 3 mps 722 mmHg 80%
    08:00 -5°C° 0 mm 4 mps 722 mmHg 76%
    09:00 -4°C° 0 mm 4 mps 723 mmHg 72%
    10:00 -4°C° 0 mm 5 mps 723 mmHg 68%
    11:00 -2°C° 0 mm 5 mps 724 mmHg 66%
    12:00 -1°C° 0 mm 5 mps 724 mmHg 64%
    13:00 -1°C° 0 mm 5 mps 724 mmHg 61%
    14:00 -1°C° 0 mm 4 mps 724 mmHg 65%
    15:00 -2°C° 0 mm 4 mps 725 mmHg 68%
    16:00 -1°C° 0 mm 3 mps 725 mmHg 72%
    17:00 -2°C° 0 mm 3 mps 725 mmHg 75%
    18:00 -3°C° 0 mm 2 mps 726 mmHg 78%
    19:00 -4°C° 0 mm 2 mps 726 mmHg 81%
    20:00 -4°C° 0 mm 2 mps 726 mmHg 82%
    21:00 -4°C° 0 mm 2 mps 726 mmHg 82%
    22:00 -5°C° 0 mm 2 mps 727 mmHg 83%
    23:00 -3°C° 0 mm 1 mps 726 mmHg 82%

    22 January, Monday

    Time Temperature Precipitation Wind Pressure Humidity
    00:00 -3°C° 0 mm 1 mps 726 mmHg 81%
    01:00 -3°C° 0 mm 1 mps 726 mmHg 81%
    02:00 -3°C° 0 mm 1 mps 726 mmHg 80%
    03:00 -3°C° 0 mm 1 mps 725 mmHg 79%
    04:00 -3°C° 0 mm 1 mps 725 mmHg 77%
    05:00 -5°C° 0 mm 2 mps 725 mmHg 77%
    06:00 -5°C° 0 mm 2 mps 724 mmHg 76%
    07:00 -4°C° 0 mm 2 mps 724 mmHg 75%
    08:00 -4°C° 0 mm 3 mps 724 mmHg 73%
    09:00 -4°C° 0 mm 4 mps 723 mmHg 71%
    10:00 -3°C° 0 mm 4 mps 723 mmHg 69%
    11:00 -3°C° 0.4 mm 4 mps 723 mmHg 73%
    12:00 -3°C° 0.4 mm 4 mps 723 mmHg 76%
    13:00 -2°C° 0.4 mm 3 mps 723 mmHg 80%
    14:00 -2°C° 0.3 mm 3 mps 723 mmHg 82%
    15:00 -2°C° 0.3 mm 2 mps 723 mmHg 84%
    16:00 -2°C° 0.3 mm 2 mps 723 mmHg 86%
    17:00 -2°C° 0.1 mm 2 mps 724 mmHg 87%
    18:00 -2°C° 0.1 mm 2 mps 724 mmHg 89%
    19:00 -2°C° 0.1 mm 2 mps 724 mmHg 90%
    20:00 -2°C° 0.1 mm 2 mps 724 mmHg 89%
    21:00 -2°C° 0.1 mm 2 mps 725 mmHg 89%
    22:00 -1°C° 0.1 mm 2 mps 725 mmHg 88%
    23:00 -1°C° 0.1 mm 2 mps 725 mmHg 88%
    Show more